RS-44 & BREEZE-KM R/B (44909 NORAD) Tracking and Keplerian Element Data

This shows tracking and keplerian element data for the satellite.

Feedback or suggestion? Click here.




ElementValue
Catalog44909
NameRS-44 & BREEZE-KM R/B
Epoch Orbit3820
Epoch Day294.68470249
Epoch Year2020
RAAN272.0936
Inclination82.5176
Eccentricity0.021638
Argument of Perigee293.8727
Mean Anonmoly63.9834
Mean Motion12.7970859
Decay Rate9E-08
L11 44909U 19096E 20294.68470249 .00000009 00000-0 82583-6 0 9999
L22 44909 82.5176 272.0936 0216380 293.8727 63.9834 12.79708590 38208

Live tracking and technical data element details for RS-44 & BREEZE-KM R/B (NORAD 44909). RS-44 & BREEZE-KM R/B can be tracked NOW for your location showing map with azimuth and elevation plus other details from your city location.

Track the satellite on the map from your city or location and see movement details for azimuth, elevation, latitude, longitude, range, height, and movement on the map or in text.







IsCatalogInMostPopularTable: catalog: 44909, numindb: 728
Update: records affected: 1



GetName: 44909 RS-44 & BREEZE-KM R/B

Hit Count: updated at: Thu, 22 Oct 2020 04:21:08 GMT